Location: Lestr�v�dan
(48.1134°N, 3.3320°W)
Time: 07:38:06
(UTC+00:00)

Daily predictions for brighter satellites

Satellite Brightness Start Highest point End
(mag) Time Altitude Azimuth Time Altitude Azimuth Time Altitude Azimuth
CZ-4B R/B 4.4 17:24:32 10° S 17:30:01 50° W 17:35:33 10° NNW
CZ-4 R/B 2.6 17:28:23 10° ESE 17:31:34 22° ENE 17:34:48 10° NNE
SMAP 3.1 17:27:14 10° SSE 17:31:53 82° ENE 17:36:34 10° NNW
ATLAS CENTAUR R/B 3.7 17:27:52 10° WSW 17:32:50 79° NNW 17:47:01 10° ENE
Cosmos 2237 Rocket 2.4 17:28:12 10° NNW 17:33:41 50° NE 17:39:08 10° SE
Cosmos 1300 2.7 17:29:55 10° N 17:33:42 60° ENE 17:37:29 10° SSE
Cosmos 1125 Rocket 3.6 17:31:37 10° S 17:36:42 58° ESE 17:41:50 10° NNE
YAOGAN 6 3.3 17:34:01 10° SE 17:37:22 34° ENE 17:40:43 10° N
AQUARIUS 4.2 17:33:37 10° SSE 17:38:06 86° ENE 17:42:38 10° NNW
Cosmos 1689 Rocket 3.8 17:35:24 10° N 17:38:06 33° WNW 17:40:48 10° SW
COSMO-SKYMED 1 3.6 17:34:33 10° NE 17:38:11 25° E 17:41:47 10° SSE
Cosmos 2074 Rocket 4.1 17:31:53 10° S 17:38:11 90° ESE 17:44:32 10° N
Cosmos 2333 Rocket 2.9 17:33:47 10° NNW 17:39:26 62° WSW 17:45:01 10° SSE
Cosmos 1626 2.1 17:36:17 10° S 17:39:55 60° E 17:43:35 10° NNE
TIMED 4.5 17:37:34 10° NNW 17:41:57 69° ENE 17:46:18 10° SSE
NOAA 12 4.1 17:37:26 10° SSE 17:42:37 70° ENE 17:47:51 10° N
IRS-1C Rocket 4.2 17:38:19 10° SSE 17:43:35 83° WSW 17:48:53 10° NNW
Cosmos 1758 Rocket 4.5 17:40:51 10° SSE 17:44:29 27° E 17:48:07 10° NNE
NOSS 0 Rocket 4.0 17:39:36 10° NNW 17:45:53 85° ENE 17:52:05 10° SSE
CSL-04 Rocket 4.4 17:41:42 10° ESE 17:46:30 32° ENE 17:51:22 10° N
Envisat 3.0 17:42:12 10° SSE 17:47:15 71° ENE 17:52:20 10° N
ATLAS 5 CENTAUR R/B 3.1 17:44:30 10° W 17:48:26 31° NNW 17:52:52 10° NNE
Cosmos 1455 3.5 17:45:39 10° NNE 17:48:33 20° ENE 17:51:26 10° ESE
Cosmos 1626 Rocket 3.5 17:44:42 10° S 17:49:02 84° E 17:53:22 10° N
CZ-4B R/B 4.1 17:49:04 10° NNW 17:50:52 15° WNW 17:52:40 10° W
ERBS 3.2 17:50:17 10° SSW 17:53:18 32° SE 17:55:37 15° ENE
Meteor 1-24 Rocket 3.9 17:49:32 10° SSW 17:54:49 70° WNW 18:00:16 10° N
Cosmos 1271 Rocket 3.3 17:51:42 10° SSW 17:55:23 57° WNW 17:59:07 10° N
Starlink AS 3.3 17:52:51 10° W 17:55:42 46° NNW 17:57:52 15° NE
SL-16 R/B 2.9 17:50:41 10° NNW 17:55:48 33° NE 18:00:51 10° ESE
Starlink AQ 3.3 17:52:58 10° W 17:55:50 46° NNW 17:58:02 15° NE
Starlink BA 3.3 17:53:06 10° W 17:55:56 46° NNW 17:58:05 15° NE
Starlink AU 3.3 17:53:18 10° W 17:56:09 46° NNW 17:58:18 15° NE
Starlink AT 3.3 17:53:33 10° W 17:56:24 46° NNW 17:58:32 16° NE
Starlink BB 3.3 17:53:46 10° W 17:56:37 45° NNW 17:58:44 16° NE
Starlink BC 3.3 17:54:00 10° W 17:56:51 45° NNW 17:58:58 16° NE
Starlink BK 3.4 17:54:13 10° W 17:57:03 45° NNW 17:59:10 16° NE
Starlink AY 3.4 17:54:27 10° W 17:57:18 45° NNW 17:59:24 16° NE
Starlink AW 3.4 17:54:40 10° W 17:57:30 45° NNW 17:59:36 16° NE
Okean O Rocket 4.2 17:53:55 10° SSW 17:57:34 25° W 18:01:14 10° NW
Starlink BJ 3.4 17:54:53 10° W 17:57:44 45° NNW 17:59:49 16° NE
Starlink AV 3.4 17:55:07 10° W 17:57:57 45° NNW 18:00:01 16° NE
Cosmos 1269 Rocket 4.0 17:52:42 10° NNW 17:58:00 73° ENE 18:03:16 10° SSE
Starlink BD 3.4 17:55:21 10° W 17:58:11 45° NNW 18:00:15 16° NE
CZ-4C R/B 3.4 17:51:16 10° NW 17:58:25 71° SW 18:06:35 10° SSE
Starlink BE 3.4 17:55:35 10° W 17:58:26 45° NNW 18:00:31 16° NE
Okean-O 2.6 17:54:06 10° SSE 17:58:31 76° ENE 18:02:58 10° N
Nadezhda 3 Rocket 4.1 17:52:17 10° N 17:58:37 89° E 18:04:58 10° S
Starlink BM 3.4 17:55:48 10° W 17:58:38 45° NNW 18:00:41 16° NE
Starlink AX 3.4 17:56:02 10° W 17:58:52 44° NNW 18:00:54 16° NE
Starlink BH 3.4 17:56:16 10° W 17:59:06 44° NNW 18:01:07 17° NE
Starlink AZ 3.4 17:56:28 10° W 17:59:18 44° NNW 18:01:19 17° NE
Starlink BG 3.4 17:56:44 10° W 17:59:33 44° NNW 18:01:34 17° NE
Starlink BF 3.4 17:56:56 10° W 17:59:45 44° NNW 18:01:45 17° NE
Starlink BL 3.4 17:57:07 10° W 17:59:58 44° NNW 18:02:00 17° NE
Starlink AH 3.4 17:57:23 10° W 18:00:13 44° NNW 18:02:12 17° NE
Starlink AC 3.4 17:57:36 10° W 18:00:26 44° NNW 18:02:24 17° NE
Starlink X 3.4 17:57:50 10° W 18:00:39 44° NNW 18:02:37 17° NE
Starlink AE 3.4 17:57:58 10° W 18:00:50 44° NNW 18:02:49 17° NE
Starlink Z 3.4 17:58:16 10° W 18:01:06 43° NNW 18:03:03 17° NE
Starlink AK 3.4 17:58:30 10° W 18:01:20 43° NNW 18:03:17 17° NE
Starlink AL 3.4 17:58:45 10° W 18:01:34 43° NNW 18:03:30 17° NE
Starlink AD 3.4 17:58:54 10° W 18:01:43 43° NNW 18:03:39 17° NE
Starlink Y 3.4 17:59:24 10° W 18:02:13 43° NNW 18:04:07 18° NE
Starlink AG 3.4 17:59:38 10° W 18:02:27 43° NNW 18:04:20 18° NE
Cosmos 1340 Rocket 2.8 17:58:38 10° NNW 18:02:37 84° WSW 18:06:36 10° S
Starlink W 3.4 17:59:49 10° W 18:02:40 43° NNW 18:04:35 18° NE
Starlink AJ 3.4 18:00:04 10° W 18:02:53 43° NNW 18:04:46 18° NE
Cosmos 2219 3.3 17:57:44 10° S 18:03:11 55° ESE 18:08:41 10° NE
Starlink AM 3.5 18:00:35 10° W 18:03:23 42° NNW 18:05:15 18° NE
Meteor 1-21 Rocket 4.5 17:58:11 10° SSE 18:03:30 47° E 18:08:56 10° NNE
Starlink AP 3.5 18:00:45 10° W 18:03:33 42° NNW 18:05:25 18° NE
Starlink AA 3.5 18:00:57 10° W 18:03:47 42° NNW 18:05:37 18° NE
Starlink AF 3.5 18:01:14 10° W 18:04:03 42° NNW 18:05:53 18° NE
Starlink AB 3.5 18:01:26 10° W 18:04:15 42° NNW 18:06:04 18° NE
Starlink AN 3.5 18:01:38 10° W 18:04:27 42° NNW 18:06:15 18° NE
SL-14 R/B 3.8 18:01:32 10° SSW 18:05:30 63° WNW 18:09:27 10° N
SJ 16-02 4.0 18:04:51 10° WNW 18:06:58 13° NW 18:09:04 10° NNW
Cosmos 1825 Rocket 3.9 18:05:02 10° SSE 18:09:08 42° E 18:13:14 10° NNE
Cosmos 1607 4.3 18:04:42 10° SW 18:10:46 62° NW 18:16:56 10° NE
Cosmos 2297 Rocket 2.4 18:09:52 10° S 18:15:17 49° ESE 18:20:18 12° NE
Cosmos 1980 3.9 18:10:37 10° NNW 18:16:20 80° WSW 18:22:00 10° SSE
FengYun 1-2 T 4.3 18:11:04 10° SSE 18:16:42 86° ENE 18:22:25 10° NNW
USA 267 3.6 18:12:10 13° NE 18:17:53 60° NNW 18:24:18 10° W
Timation 2 Rocket 4.5 18:12:54 10° SW 18:18:57 60° NW 18:25:18 10° NNE
Meteor 2-17 Rocket 4.4 18:13:55 10° S 18:20:04 83° E 18:26:14 10° N
Starlink T 3.7 18:17:18 10° W 18:20:08 38° NNW 18:21:23 25° NE
SL-8 Rocket 4.1 18:14:37 10° SSE 18:20:41 52° E 18:26:45 10° NNE
Starlink N 3.7 18:18:46 10° W 18:21:36 37° NNW 18:22:47 25° NE
Iridium 96 3.5 18:22:58 44° NE 18:23:17 49° E 18:25:39 10° SSE
Starlink Q 3.7 18:20:32 10° W 18:23:22 37° NNW 18:24:29 26° NE
Cosmos 2219 Rocket 4.3 18:18:51 10° NW 18:23:45 31° WSW 18:28:37 10° SSW
Starlink P 3.8 18:22:06 10° W 18:24:56 36° NNW 18:25:59 27° NNE
Cosmos 2341 Rocket 4.0 18:19:28 10° S 18:25:50 76° E 18:32:11 10° NNE
Shenzhou-11 Module 4.1 18:24:33 10° SSW 18:25:59 13° SSE 18:26:25 13° SSE
SKYMED 2 3.5 18:22:05 10° NNE 18:26:27 75° ESE 18:30:47 10° S
Starlink U 3.8 18:23:39 10° W 18:26:29 36° NNW 18:27:28 27° NNE
Starlink AR 3.6 18:24:43 10° WNW 18:27:03 29° N 18:27:30 27° NNE
Cosmos 2227 Rocket 2.3 18:22:15 10° S 18:27:45 56° ESE 18:32:19 15° NE
Starlink B 3.8 18:25:15 10° W 18:28:05 36° NNW 18:29:00 28° NNE
USA 116 3.7 18:27:57 33° E 18:28:18 35° E 18:31:10 10° SSE
NOAA 11 4.2 18:24:27 10° SSE 18:29:53 63° ENE 18:35:19 10° N
Ariane Rocket 3.6 18:26:19 10° SE 18:30:47 32° ENE 18:35:17 10° N
Cosmos 1939 Rocket 2.8 18:30:54 10° SSE 18:34:43 54° ENE 18:38:37 10° N
Starlink D 3.8 18:33:34 10° WNW 18:36:23 34° N 18:37:00 31° NNE
SL-8 R/B 4.5 18:32:12 10° SW 18:36:38 38° SSE 18:38:29 27° ESE
Starlink S 3.8 18:35:13 10° WNW 18:38:03 34° N 18:38:35 31° NNE
ARGOS 4.4 18:40:05 22° NE 18:40:05 22° NE 18:43:17 10° N
Starlink C 3.8 18:36:50 10° WNW 18:39:40 34° N 18:40:08 32° NNE
NOSS 2-1 (C) 4.5 18:34:25 10° NW 18:39:42 82° SW 18:47:08 10° SE
Starlink E 3.8 18:38:31 10° WNW 18:41:20 34° N 18:41:44 32° N
Meteor 2-10 Rocket 3.4 18:37:20 10° N 18:42:44 78° ENE 18:47:52 10° SSE
Cosmos 1943 4.5 18:38:34 10° N 18:42:49 21° NE 18:42:49 21° NE
Starlink J 3.8 18:40:11 10° WNW 18:43:00 33° N 18:43:21 32° N
Cosmos-2242 3.1 18:39:39 10° NNW 18:44:01 80° W 18:48:17 10° S
Cosmos 1703 3.4 18:40:33 10° S 18:44:22 49° E 18:45:38 35° NE
Starlink V 3.9 18:41:51 10° WNW 18:44:40 33° N 18:44:56 32° N
YAOGAN 1 2.6 18:41:41 10° SSE 18:46:01 84° W 18:50:23 10° NNW
Starlink H 3.9 18:43:33 10° WNW 18:46:22 33° N 18:46:33 33° N
Starlink F 3.9 18:45:14 10° WNW 18:48:03 33° N 18:48:11 33° N
Starlink G 3.9 18:46:56 10° WNW 18:49:45 32° N 18:49:47 32° N
H-2A R/B 3.2 18:52:43 25° NE 18:52:43 25° NE 18:55:38 10° N
Cosmos 44 3.3 18:46:53 10° SSW 18:51:19 50° ESE 18:52:11 43° E
Starlink L 4.0 18:48:37 10° WNW 18:51:24 32° N 18:51:24 32° N
Starlink A 4.0 18:50:19 10° WNW 18:53:02 32° N 18:53:02 32° N
Starlink R 4.1 18:52:01 10° WNW 18:54:41 32° NNW 18:54:41 32° NNW
Cosmos 2218 Rocket 3.9 18:49:30 10° S 18:55:49 78° E 19:02:15 10° NNE
Cosmos 1339 Rocket 4.4 18:50:21 10° N 18:56:28 87° W 19:02:36 10° S
Starlink K 4.1 18:53:43 10° WNW 18:56:18 31° NNW 18:56:18 31° NNW
Cosmos 2251 Rocket 3.4 18:51:43 10° NNW 18:57:01 69° ENE 19:02:01 12° SSE
Starlink M 4.2 18:55:24 10° WNW 18:57:54 31° NNW 18:57:54 31° NNW
Cosmos 864 Rocket 4.3 18:53:02 10° S 18:59:07 75° E 19:05:16 10° NNE
CSL-04 Debris 4.4 18:55:23 10° S 19:00:45 71° WSW 19:06:11 10° NNW
DMSP B5D1-3 4.4 18:56:48 13° NNE 19:01:21 69° ESE 19:06:26 10° S
ISS -3.1 18:58:27 10° SW 19:01:14 44° S 19:01:14 44° S
ATLAS CENTAUR R/B 1.8 18:57:53 10° NNW 19:01:19 42° NNE 19:01:19 42° NNE
CZ-4 R/B 2.8 19:02:33 10° SSW 19:06:21 39° W 19:10:16 10° NNW
CZ-2D R/B 4.0 19:10:15 10° S 19:13:59 53° W 19:17:47 10° NNW
COSMO-SKYMED 1 4.0 19:10:26 10° N 19:14:26 37° WNW 19:18:25 10° SW
Cosmos 1953 Rocket 4.2 19:12:47 10° SSW 19:17:12 58° WNW 19:21:39 10° N
Cosmos 2237 Rocket 4.1 19:12:41 10° NW 19:17:30 30° WSW 19:22:18 10° SSW
Cosmos 1842 Rocket 4.1 19:15:48 10° N 19:18:59 45° N 19:18:59 45° N
CZ-2C R/B 4.2 19:23:28 30° NNE 19:23:28 30° NNE 19:26:40 10° N
Cosmos 1455 3.9 19:20:49 10° NNW 19:24:17 34° W 19:27:43 10° SSW
Cosmos 1356 Rocket 3.8 19:22:40 10° NNW 19:25:52 53° NNW 19:25:52 53° NNW
Cosmos 1000 Rocket 4.4 19:21:27 10° N 19:27:35 62° ENE 19:28:48 52° ESE
ERBS 4.0 19:26:26 10° W 19:28:38 31° WNW 19:28:38 31° WNW
Cosmos 2366 rocket 4.3 19:23:45 10° SSW 19:29:55 66° WNW 19:36:12 10° N
ADEOS Rocket 3.2 19:24:04 10° NNE 19:30:38 80° ESE 19:37:54 10° SSW
Meteor 1-27 4.0 19:26:21 10° N 19:31:57 88° E 19:35:58 20° S
Meteor 2-2 Rocket 4.2 19:27:40 10° N 19:33:43 67° ENE 19:33:55 66° E
ATLAS 5 CENTAUR R/B 4.0 19:31:51 10° NW 19:34:43 15° N 19:35:26 15° N
Meteor 1-11 4.1 19:29:57 10° SSW 19:35:34 84° WNW 19:38:45 27° N
SL-16 R/B 3.0 19:34:40 10° NW 19:40:09 50° WSW 19:45:35 10° S
Cosmos 2082 4.1 19:43:57 10° SW 19:49:30 61° WNW 19:50:54 47° N
Meteor 2-12 Rocket 4.4 19:43:51 10° SSW 19:49:53 79° W 19:55:59 10° N
Cosmos 1603 4.3 19:47:00 10° NNW 19:51:03 46° N 19:51:03 46° N
MOS 1 4.5 19:58:11 55° SSW 19:59:20 70° WSW 20:05:03 10° NNW
Cosmos 2297 Rocket 3.6 19:54:27 10° WSW 19:59:32 33° NW 20:02:09 23° N
USA 267 3.9 19:59:31 40° NNE 20:00:18 41° N 20:06:19 10° WNW
FALCON 9 R/B 4.5 19:57:50 10° SW 20:05:20 19° S 20:05:55 19° S
Ariane Rocket 4.2 20:04:57 10° SSW 20:09:39 39° W 20:14:25 10° NNW
Cosmos 2227 Rocket 3.8 20:07:11 10° WSW 20:12:08 30° NW 20:14:11 24° NNW
H-2A R/B 4.0 20:33:20 23° NW 20:33:20 23° NW 20:35:25 10° NNW
ATLAS 5 CENTAUR R/B 4.4 21:02:57 10° NW 21:08:51 68° SW 21:09:02 68° SW
